Time,TemperatureF,DewpointF,PressureIn,WindDirection,WindDirectionDegrees,WindSpeedMPH,WindSpeedGustMPH,Humidity,HourlyPrecipIn,Conditions,Clouds,dailyrainin,SoftwareType,DateUTC
2013-01-15 00:00:00,22.0,0.0,30.35,NW,317,0.0,0.0,29,-99.99,,,-99.99,,2013-01-15 08:00:00,
2013-01-15 00:08:00,21.0,0.0,30.35,NW,311,0.0,1.0,29,-99.99,,,-99.99,,2013-01-15 08:08:00,
2013-01-15 00:16:00,21.0,0.0,30.35,WNW,294,0.0,0.0,30,-99.99,,,-99.99,,2013-01-15 08:16:00,
2013-01-15 00:24:00,21.0,0.0,30.36,NW,325,0.0,0.0,30,-99.99,,,-99.99,,2013-01-15 08:24:00,
2013-01-15 00:32:00,21.0,0.0,30.36,NW,315,0.0,0.0,31,-99.99,,,-99.99,,2013-01-15 08:32:00,
2013-01-15 00:40:00,22.0,0.0,30.35,NW,317,0.0,0.0,30,-99.99,,,-99.99,,2013-01-15 08:40:00,
2013-01-15 00:48:00,22.0,0.0,30.36,NW,313,0.0,0.0,31,-99.99,,,-99.99,,2013-01-15 08:48:00,
2013-01-15 00:56:00,21.0,0.0,30.36,WNW,298,0.0,0.0,32,-99.99,,,-99.99,,2013-01-15 08:56:00,
2013-01-15 01:04:00,22.0,0.0,30.37,NW,320,0.0,0.0,33,-99.99,,,-99.99,,2013-01-15 09:04:00,
2013-01-15 01:12:00,22.0,0.0,30.36,NW,321,0.0,0.0,32,-99.99,,,-99.99,,2013-01-15 09:12:00,
2013-01-15 01:20:00,21.0,0.0,30.37,NW,313,0.0,0.0,30,-99.99,,,-99.99,,2013-01-15 09:20:00,
2013-01-15 01:28:00,21.0,0.0,30.37,NW,311,0.0,0.0,34,-99.99,,,-99.99,,2013-01-15 09:28:00,
2013-01-15 01:36:00,21.0,0.0,30.37,WNW,303,0.0,0.0,31,-99.99,,,-99.99,,2013-01-15 09:36:00,
2013-01-15 01:44:00,21.0,0.0,30.37,NW,317,0.0,0.0,34,-99.99,,,-99.99,,2013-01-15 09:44:00,
2013-01-15 01:52:00,21.0,0.0,30.38,NW,324,0.0,0.0,31,-99.99,,,-99.99,,2013-01-15 09:52:00,
2013-01-15 02:00:00,21.0,0.0,30.38,WNW,297,0.0,0.0,32,-99.99,,,-99.99,,2013-01-15 10:00:00,
2013-01-15 02:08:00,21.0,0.0,30.38,NW,313,0.0,0.0,31,-99.99,,,-99.99,,2013-01-15 10:08:00,
2013-01-15 02:16:00,20.0,0.0,30.38,NW,310,0.0,0.0,31,-99.99,,,-99.99,,2013-01-15 10:16:00,
2013-01-15 02:24:00,20.0,0.0,30.38,NW,317,0.0,0.0,31,-99.99,,,-99.99,,2013-01-15 10:24:00,
2013-01-15 02:32:00,21.0,0.0,30.38,NW,322,0.0,0.0,33,-99.99,,,-99.99,,2013-01-15 10:32:00,
2013-01-15 02:40:00,22.0,0.0,30.38,NW,313,0.0,0.0,32,-99.99,,,-99.99,,2013-01-15 10:40:00,
2013-01-15 02:48:00,22.0,0.0,30.39,NW,307,0.0,0.0,30,-99.99,,,-99.99,,2013-01-15 10:48:00,
2013-01-15 02:56:00,22.0,0.0,30.39,WNW,302,0.0,0.0,30,-99.99,,,-99.99,,2013-01-15 10:56:00,
2013-01-15 03:04:00,21.0,0.0,30.39,WNW,295,0.0,0.0,30,-99.99,,,-99.99,,2013-01-15 11:04:00,
2013-01-15 03:12:00,21.0,0.0,30.38,NW,317,0.0,0.0,30,-99.99,,,-99.99,,2013-01-15 11:12:00,
2013-01-15 03:20:00,21.0,0.0,30.38,NW,316,0.0,0.0,33,-99.99,,,-99.99,,2013-01-15 11:20:00,
2013-01-15 03:28:00,21.0,0.0,30.38,NW,315,0.0,0.0,33,-99.99,,,-99.99,,2013-01-15 11:28:00,
2013-01-15 03:36:00,21.0,0.0,30.39,NW,318,0.0,0.0,30,-99.99,,,-99.99,,2013-01-15 11:36:00,
2013-01-15 03:44:00,20.0,0.0,30.39,WNW,302,0.0,0.0,30,-99.99,,,-99.99,,2013-01-15 11:44:00,
2013-01-15 03:52:00,20.0,0.0,30.39,NW,326,0.0,0.0,31,-99.99,,,-99.99,,2013-01-15 11:52:00,
2013-01-15 04:00:00,20.0,0.0,30.39,NW,319,0.0,0.0,33,-99.99,,,-99.99,,2013-01-15 12:00:00,
2013-01-15 04:08:00,19.0,0.0,30.39,NW,320,0.0,0.0,32,-99.99,,,-99.99,,2013-01-15 12:08:00,
2013-01-15 04:16:00,19.0,0.0,30.39,NW,311,0.0,0.0,32,-99.99,,,-99.99,,2013-01-15 12:16:00,
2013-01-15 04:24:00,19.0,0.0,30.40,NW,319,0.0,0.0,33,-99.99,,,-99.99,,2013-01-15 12:24:00,
2013-01-15 04:32:00,20.0,0.0,30.40,NW,313,0.0,0.0,36,-99.99,,,-99.99,,2013-01-15 12:32:00,
2013-01-15 04:40:00,20.0,0.0,30.40,WNW,290,0.0,0.0,33,-99.99,,,-99.99,,2013-01-15 12:40:00,
2013-01-15 04:48:00,20.0,0.0,30.40,NW,313,0.0,0.0,34,-99.99,,,-99.99,,2013-01-15 12:48:00,
2013-01-15 04:56:00,20.0,0.0,30.40,NW,310,0.0,0.0,33,-99.99,,,-99.99,,2013-01-15 12:56:00,
2013-01-15 05:04:00,20.0,0.0,30.41,NW,313,0.0,0.0,33,-99.99,,,-99.99,,2013-01-15 13:04:00,
2013-01-15 05:12:00,20.0,0.0,30.41,NW,315,0.0,0.0,35,-99.99,,,-99.99,,2013-01-15 13:12:00,
2013-01-15 05:20:00,21.0,0.0,30.41,NW,315,0.0,0.0,31,-99.99,,,-99.99,,2013-01-15 13:20:00,
2013-01-15 05:28:00,20.0,0.0,30.41,WNW,299,0.0,0.0,33,-99.99,,,-99.99,,2013-01-15 13:28:00,
2013-01-15 05:36:00,19.0,0.0,30.41,WNW,286,0.0,0.0,32,-99.99,,,-99.99,,2013-01-15 13:36:00,
2013-01-15 05:44:00,19.0,0.0,30.41,NW,319,0.0,0.0,34,-99.99,,,-99.99,,2013-01-15 13:44:00,
2013-01-15 05:52:00,19.0,0.0,30.42,NW,319,0.0,0.0,35,-99.99,,,-99.99,,2013-01-15 13:52:00,
2013-01-15 06:00:00,18.0,0.0,30.41,WNW,303,0.0,0.0,35,-99.99,,,-99.99,,2013-01-15 14:00:00,
2013-01-15 06:08:00,18.0,0.0,30.42,NW,306,0.0,0.0,34,-99.99,,,-99.99,,2013-01-15 14:08:00,
2013-01-15 06:16:00,19.0,0.0,30.42,NW,310,0.0,0.0,33,-99.99,,,-99.99,,2013-01-15 14:16:00,
2013-01-15 06:24:00,18.0,0.0,30.42,NW,316,0.0,0.0,35,-99.99,,,-99.99,,2013-01-15 14:24:00,
2013-01-15 06:32:00,18.0,0.0,30.41,NW,317,0.0,0.0,36,-99.99,,,-99.99,,2013-01-15 14:32:00,
2013-01-15 06:40:00,18.0,0.0,30.42,NW,321,0.0,0.0,35,-99.99,,,-99.99,,2013-01-15 14:40:00,
2013-01-15 06:48:00,18.0,0.0,30.43,NW,320,0.0,0.0,38,-99.99,,,-99.99,,2013-01-15 14:48:00,
2013-01-15 06:56:00,18.0,0.0,30.43,NW,320,0.0,0.0,36,-99.99,,,-99.99,,2013-01-15 14:56:00,
2013-01-15 07:04:00,18.0,0.0,30.43,NW,313,0.0,0.0,35,-99.99,,,-99.99,,2013-01-15 15:04:00,
2013-01-15 07:12:00,18.0,0.0,30.44,WNW,302,0.0,0.0,34,-99.99,,,-99.99,,2013-01-15 15:12:00,
2013-01-15 07:20:00,18.0,0.0,30.45,NW,307,0.0,0.0,35,-99.99,,,-99.99,,2013-01-15 15:20:00,
2013-01-15 07:28:00,19.0,0.0,30.45,NW,312,0.0,0.0,37,-99.99,,,-99.99,,2013-01-15 15:28:00,
2013-01-15 07:36:00,20.0,0.0,30.46,NW,318,0.0,0.0,34,-99.99,,,-99.99,,2013-01-15 15:36:00,
2013-01-15 07:44:00,22.0,0.0,30.46,NW,321,0.0,0.0,32,-99.99,,,-99.99,,2013-01-15 15:44:00,
2013-01-15 07:52:00,24.0,0.0,30.46,NW,318,0.0,0.0,28,-99.99,,,-99.99,,2013-01-15 15:52:00,
2013-01-15 08:00:00,25.0,0.0,30.46,NW,320,0.0,0.0,30,-99.99,,,-99.99,,2013-01-15 16:00:00,
2013-01-15 08:08:00,26.0,0.0,30.46,NW,314,0.0,0.0,29,-99.99,,,-99.99,,2013-01-15 16:08:00,
2013-01-15 08:16:00,28.0,0.0,30.47,NW,317,0.0,0.0,26,-99.99,,,-99.99,,2013-01-15 16:16:00,
2013-01-15 08:24:00,30.0,0.0,30.47,NW,318,0.0,0.0,28,-99.99,,,-99.99,,2013-01-15 16:24:00,
2013-01-15 08:32:00,31.0,0.0,30.48,NW,324,0.0,0.0,24,-99.99,,,-99.99,,2013-01-15 16:32:00,
2013-01-15 08:40:00,33.0,0.0,30.48,NW,320,0.0,0.0,24,-99.99,,,-99.99,,2013-01-15 16:40:00,
2013-01-15 08:48:00,33.0,0.0,30.49,NW,321,0.0,0.0,22,-99.99,,,-99.99,,2013-01-15 16:48:00,
2013-01-15 08:56:00,35.0,0.0,30.49,NW,322,2.0,3.0,20,-99.99,,,-99.99,,2013-01-15 16:56:00,
2013-01-15 09:04:00,36.0,0.0,30.49,NW,318,0.0,0.0,22,-99.99,,,-99.99,,2013-01-15 17:04:00,
2013-01-15 09:12:00,36.0,0.0,30.49,NW,320,0.0,0.0,19,-99.99,,,-99.99,,2013-01-15 17:12:00,
2013-01-15 09:20:00,37.0,0.0,30.49,NW,314,6.0,6.0,21,-99.99,,,-99.99,,2013-01-15 17:20:00,
2013-01-15 09:28:00,39.0,0.0,30.48,NW,314,5.0,9.0,18,-99.99,,,-99.99,,2013-01-15 17:28:00,
2013-01-15 09:36:00,40.0,0.0,30.48,NW,311,12.0,12.0,16,-99.99,,,-99.99,,2013-01-15 17:36:00,
2013-01-15 09:44:00,40.0,0.0,30.48,NW,321,0.0,0.0,17,-99.99,,,-99.99,,2013-01-15 17:44:00,
2013-01-15 09:52:00,40.0,0.0,30.48,NW,322,7.0,8.0,18,-99.99,,,-99.99,,2013-01-15 17:52:00,
2013-01-15 10:00:00,41.0,0.0,30.48,NW,323,0.0,0.0,16,-99.99,,,-99.99,,2013-01-15 18:00:00,
2013-01-15 10:08:00,41.0,0.0,30.48,NW,320,0.0,0.0,18,-99.99,,,-99.99,,2013-01-15 18:08:00,
2013-01-15 10:16:00,40.0,0.0,30.48,South,178,0.0,0.0,16,-99.99,,,-99.99,,2013-01-15 18:16:00,
2013-01-15 10:24:00,41.0,0.0,30.47,South,181,0.0,0.0,15,-99.99,,,-99.99,,2013-01-15 18:24:00,
2013-01-15 10:32:00,43.0,0.0,30.47,NNW,332,0.0,2.0,14,-99.99,,,-99.99,,2013-01-15 18:32:00,
2013-01-15 10:40:00,43.0,0.0,30.46,NW,325,3.0,3.0,16,-99.99,,,-99.99,,2013-01-15 18:40:00,
2013-01-15 10:48:00,42.0,0.0,30.46,NNW,328,5.0,5.0,15,-99.99,,,-99.99,,2013-01-15 18:48:00,
2013-01-15 10:56:00,42.0,0.0,30.45,South,186,0.0,0.0,15,-99.99,,,-99.99,,2013-01-15 18:56:00,
2013-01-15 11:04:00,42.0,0.0,30.45,NNW,335,3.0,3.0,15,-99.99,,,-99.99,,2013-01-15 19:04:00,
2013-01-15 11:12:00,43.0,0.0,30.45,NNW,336,0.0,0.0,15,-99.99,,,-99.99,,2013-01-15 19:12:00,
2013-01-15 11:20:00,42.0,0.0,30.44,SSW,200,0.0,0.0,16,-99.99,,,-99.99,,2013-01-15 19:20:00,
2013-01-15 11:28:00,43.0,0.0,30.44,SSE,163,0.0,0.0,19,-99.99,,,-99.99,,2013-01-15 19:28:00,
2013-01-15 11:36:00,43.0,0.0,30.44,SW,236,0.0,0.0,14,-99.99,,,-99.99,,2013-01-15 19:36:00,
2013-01-15 11:44:00,42.0,0.0,30.44,SSW,209,9.0,10.0,16,-99.99,,,-99.99,,2013-01-15 19:44:00,
2013-01-15 11:52:00,43.0,0.0,30.43,SW,222,8.0,8.0,17,-99.99,,,-99.99,,2013-01-15 19:52:00,
2013-01-15 12:00:00,44.0,0.0,30.43,SSW,204,0.0,0.0,17,-99.99,,,-99.99,,2013-01-15 20:00:00,
2013-01-15 12:08:00,45.0,0.0,30.42,SE,137,0.0,0.0,16,-99.99,,,-99.99,,2013-01-15 20:08:00,
2013-01-15 12:16:00,44.0,0.0,30.42,WNW,294,7.0,7.0,16,-99.99,,,-99.99,,2013-01-15 20:16:00,
2013-01-15 12:24:00,45.0,0.0,30.41,WNW,284,0.0,0.0,18,-99.99,,,-99.99,,2013-01-15 20:24:00,
2013-01-15 12:32:00,45.0,0.0,30.41,WNW,299,3.0,3.0,20,-99.99,,,-99.99,,2013-01-15 20:32:00,
2013-01-15 12:40:00,45.0,0.0,30.41,SSW,205,0.0,0.0,18,-99.99,,,-99.99,,2013-01-15 20:40:00,
2013-01-15 12:48:00,46.0,0.0,30.41,SSE,162,8.0,8.0,20,-99.99,,,-99.99,,2013-01-15 20:48:00,
2013-01-15 12:56:00,46.0,0.0,30.40,South,176,7.0,7.0,19,-99.99,,,-99.99,,2013-01-15 20:56:00,
2013-01-15 13:04:00,45.0,0.0,30.40,ESE,110,0.0,0.0,21,-99.99,,,-99.99,,2013-01-15 21:04:00,
2013-01-15 13:12:00,46.0,0.0,30.40,ENE,64,0.0,0.0,21,-99.99,,,-99.99,,2013-01-15 21:12:00,
2013-01-15 13:20:00,46.0,0.0,30.40,SE,135,0.0,0.0,20,-99.99,,,-99.99,,2013-01-15 21:20:00,
2013-01-15 13:28:00,46.0,0.0,30.40,South,171,13.0,13.0,17,-99.99,,,-99.99,,2013-01-15 21:28:00,
2013-01-15 13:36:00,46.0,0.0,30.40,South,170,0.0,0.0,17,-99.99,,,-99.99,,2013-01-15 21:36:00,
2013-01-15 13:44:00,46.0,0.0,30.39,East,86,0.0,0.0,15,-99.99,,,-99.99,,2013-01-15 21:44:00,
2013-01-15 13:52:00,46.0,0.0,30.39,SSE,164,8.0,8.0,18,-99.99,,,-99.99,,2013-01-15 21:52:00,
2013-01-15 14:00:00,46.0,0.0,30.39,NNW,333,2.0,2.0,17,-99.99,,,-99.99,,2013-01-15 22:00:00,
2013-01-15 14:08:00,47.0,0.0,30.38,NNE,23,0.0,0.0,16,-99.99,,,-99.99,,2013-01-15 22:08:00,
2013-01-15 14:16:00,46.0,0.0,30.38,SE,145,2.0,2.0,17,-99.99,,,-99.99,,2013-01-15 22:16:00,
2013-01-15 14:24:00,46.0,0.0,30.38,SE,136,7.0,10.0,15,-99.99,,,-99.99,,2013-01-15 22:24:00,
2013-01-15 14:32:00,46.0,0.0,30.38,SSE,156,0.0,0.0,21,-99.99,,,-99.99,,2013-01-15 22:32:00,
2013-01-15 14:40:00,46.0,0.0,30.38,ENE,57,0.0,0.0,19,-99.99,,,-99.99,,2013-01-15 22:40:00,
2013-01-15 14:48:00,46.0,0.0,30.38,ESE,118,0.0,0.0,19,-99.99,,,-99.99,,2013-01-15 22:48:00,
2013-01-15 14:56:00,46.0,0.0,30.38,SSE,159,0.0,0.0,17,-99.99,,,-99.99,,2013-01-15 22:56:00,
2013-01-15 15:04:00,46.0,0.0,30.38,East,87,0.0,0.0,20,-99.99,,,-99.99,,2013-01-15 23:04:00,
2013-01-15 15:12:00,46.0,0.0,30.38,SE,128,0.0,0.0,20,-99.99,,,-99.99,,2013-01-15 23:12:00,
2013-01-15 15:20:00,46.0,0.0,30.38,North,1,3.0,3.0,21,-99.99,,,-99.99,,2013-01-15 23:20:00,
2013-01-15 15:28:00,47.0,0.0,30.38,NNW,336,3.0,3.0,18,-99.99,,,-99.99,,2013-01-15 23:28:00,
2013-01-15 15:36:00,46.0,0.0,30.38,NNE,29,0.0,0.0,23,-99.99,,,-99.99,,2013-01-15 23:36:00,
2013-01-15 15:44:00,47.0,0.0,30.38,NNW,336,3.0,3.0,21,-99.99,,,-99.99,,2013-01-15 23:44:00,
2013-01-15 15:52:00,47.0,0.0,30.38,NNW,334,5.0,5.0,18,-99.99,,,-99.99,,2013-01-15 23:52:00,
2013-01-15 16:00:00,46.0,0.0,30.38,NNW,336,2.0,5.0,19,-99.99,,,-99.99,,2013-01-16 00:00:00,
2013-01-15 16:08:00,46.0,0.0,30.38,NNW,339,5.0,5.0,22,-99.99,,,-99.99,,2013-01-16 00:08:00,
2013-01-15 16:16:00,46.0,0.0,30.38,NNW,335,0.0,2.0,20,-99.99,,,-99.99,,2013-01-16 00:16:00,
2013-01-15 16:24:00,45.0,0.0,30.38,NNW,336,2.0,2.0,19,-99.99,,,-99.99,,2013-01-16 00:24:00,
2013-01-15 16:32:00,45.0,0.0,30.38,NNW,339,0.0,0.0,20,-99.99,,,-99.99,,2013-01-16 00:32:00,
2013-01-15 16:40:00,45.0,0.0,30.38,NNW,336,2.0,6.0,19,-99.99,,,-99.99,,2013-01-16 00:40:00,
2013-01-15 16:48:00,45.0,0.0,30.38,North,1,2.0,2.0,21,-99.99,,,-99.99,,2013-01-16 00:48:00,
2013-01-15 16:56:00,44.0,0.0,30.38,NNW,337,6.0,6.0,19,-99.99,,,-99.99,,2013-01-16 00:56:00,
2013-01-15 17:04:00,43.0,0.0,30.38,NNW,337,3.0,5.0,21,-99.99,,,-99.99,,2013-01-16 01:04:00,
2013-01-15 17:12:00,43.0,0.0,30.38,NNW,337,0.0,0.0,23,-99.99,,,-99.99,,2013-01-16 01:12:00,
2013-01-15 17:20:00,42.0,0.0,30.38,NNW,336,0.0,0.0,21,-99.99,,,-99.99,,2013-01-16 01:20:00,
2013-01-15 17:28:00,42.0,0.0,30.38,ENE,78,0.0,0.0,21,-99.99,,,-99.99,,2013-01-16 01:28:00,
2013-01-15 17:36:00,42.0,0.0,30.38,NE,47,0.0,0.0,22,-99.99,,,-99.99,,2013-01-16 01:36:00,
2013-01-15 17:44:00,41.0,0.0,30.38,NNW,340,0.0,0.0,20,-99.99,,,-99.99,,2013-01-16 01:44:00,
2013-01-15 17:52:00,40.0,0.0,30.39,NNW,329,0.0,0.0,23,-99.99,,,-99.99,,2013-01-16 01:52:00,
2013-01-15 18:00:00,40.0,0.0,30.39,NNW,329,0.0,0.0,23,-99.99,,,-99.99,,2013-01-16 02:00:00,
2013-01-15 18:08:00,40.0,0.0,30.40,NW,314,9.0,9.0,23,-99.99,,,-99.99,,2013-01-16 02:08:00,
2013-01-15 18:16:00,38.0,0.0,30.40,NW,313,10.0,12.0,22,-99.99,,,-99.99,,2013-01-16 02:16:00,
2013-01-15 18:24:00,37.0,0.0,30.40,WNW,299,12.0,13.0,23,-99.99,,,-99.99,,2013-01-16 02:24:00,
2013-01-15 18:32:00,36.0,0.0,30.40,WNW,300,9.0,10.0,26,-99.99,,,-99.99,,2013-01-16 02:32:00,
2013-01-15 18:40:00,36.0,0.0,30.40,NW,320,9.0,10.0,27,-99.99,,,-99.99,,2013-01-16 02:40:00,
2013-01-15 18:48:00,36.0,0.0,30.41,WSW,258,12.0,13.0,24,-99.99,,,-99.99,,2013-01-16 02:48:00,
2013-01-15 18:56:00,36.0,0.0,30.41,NW,318,10.0,10.0,24,-99.99,,,-99.99,,2013-01-16 02:56:00,
2013-01-15 19:04:00,36.0,0.0,30.41,NW,312,9.0,9.0,27,-99.99,,,-99.99,,2013-01-16 03:04:00,
2013-01-15 19:12:00,36.0,0.0,30.41,NW,325,12.0,12.0,26,-99.99,,,-99.99,,2013-01-16 03:12:00,
2013-01-15 19:20:00,35.0,0.0,30.42,WNW,283,12.0,13.0,25,-99.99,,,-99.99,,2013-01-16 03:20:00,
2013-01-15 19:28:00,34.0,0.0,30.42,NW,322,7.0,9.0,25,-99.99,,,-99.99,,2013-01-16 03:28:00,
2013-01-15 19:36:00,34.0,0.0,30.41,NW,324,8.0,9.0,28,-99.99,,,-99.99,,2013-01-16 03:36:00,
2013-01-15 19:44:00,33.0,0.0,30.41,NW,318,13.0,13.0,28,-99.99,,,-99.99,,2013-01-16 03:44:00,
2013-01-15 19:52:00,32.0,0.0,30.42,NW,321,10.0,10.0,26,-99.99,,,-99.99,,2013-01-16 03:52:00,
2013-01-15 20:00:00,31.0,0.0,30.42,NW,304,13.0,13.0,27,-99.99,,,-99.99,,2013-01-16 04:00:00,
2013-01-15 20:08:00,31.0,0.0,30.42,NW,305,10.0,10.0,28,-99.99,,,-99.99,,2013-01-16 04:08:00,
2013-01-15 20:16:00,31.0,0.0,30.42,NW,309,9.0,12.0,32,-99.99,,,-99.99,,2013-01-16 04:16:00,
2013-01-15 20:24:00,31.0,0.0,30.42,WNW,292,13.0,14.0,31,-99.99,,,-99.99,,2013-01-16 04:24:00,
2013-01-15 20:32:00,31.0,0.0,30.42,NW,314,10.0,10.0,28,-99.99,,,-99.99,,2013-01-16 04:32:00,
2013-01-15 20:40:00,30.0,0.0,30.43,NW,319,10.0,10.0,29,-99.99,,,-99.99,,2013-01-16 04:40:00,
2013-01-15 20:48:00,30.0,0.0,30.43,NW,309,10.0,12.0,32,-99.99,,,-99.99,,2013-01-16 04:48:00,
2013-01-15 20:56:00,30.0,0.0,30.43,NW,319,10.0,10.0,33,-99.99,,,-99.99,,2013-01-16 04:56:00,
2013-01-15 21:00:00,30.0,0.0,30.43,NW,316,9.0,9.0,32,-99.99,,,-99.99,,2013-01-16 05:00:00,
2013-01-15 21:04:00,30.0,0.0,30.43,WNW,295,10.0,12.0,31,-99.99,,,-99.99,,2013-01-16 05:04:00,
2013-01-15 21:12:00,30.0,0.0,30.43,NW,320,12.0,12.0,31,-99.99,,,-99.99,,2013-01-16 05:12:00,
2013-01-15 21:20:00,30.0,0.0,30.43,WNW,290,13.0,13.0,33,-99.99,,,-99.99,,2013-01-16 05:20:00,
2013-01-15 21:21:00,30.0,0.0,30.43,WNW,290,13.0,13.0,33,-99.99,,,-99.99,,2013-01-16 05:21:00,
2013-01-15 21:28:00,30.0,0.0,30.43,NW,312,15.0,15.0,31,-99.99,,,-99.99,,2013-01-16 05:28:00,
2013-01-15 21:36:00,30.0,0.0,30.43,NW,322,13.0,13.0,33,-99.99,,,-99.99,,2013-01-16 05:36:00,
2013-01-15 21:44:00,30.0,0.0,30.43,NW,324,0.0,0.0,33,-99.99,,,-99.99,,2013-01-16 05:44:00,
2013-01-15 21:52:00,30.0,0.0,30.43,NW,316,12.0,12.0,32,-99.99,,,-99.99,,2013-01-16 05:52:00,
2013-01-15 22:00:00,30.0,0.0,30.43,WNW,284,9.0,9.0,33,-99.99,,,-99.99,,2013-01-16 06:00:00,
2013-01-15 22:08:00,30.0,0.0,30.43,NW,312,9.0,9.0,33,-99.99,,,-99.99,,2013-01-16 06:08:00,
2013-01-15 22:16:00,29.0,0.0,30.43,NNW,328,0.0,0.0,35,-99.99,,,-99.99,,2013-01-16 06:16:00,
2013-01-15 22:24:00,29.0,0.0,30.44,NW,321,1.0,2.0,35,-99.99,,,-99.99,,2013-01-16 06:24:00,
2013-01-15 22:32:00,29.0,0.0,30.44,NW,321,0.0,0.0,34,-99.99,,,-99.99,,2013-01-16 06:32:00,
2013-01-15 22:40:00,29.0,0.0,30.44,NW,319,10.0,10.0,35,-99.99,,,-99.99,,2013-01-16 06:40:00,
2013-01-15 22:48:00,29.0,0.0,30.44,NW,308,0.0,0.0,37,-99.99,,,-99.99,,2013-01-16 06:48:00,
2013-01-15 22:56:00,28.0,0.0,30.44,NW,308,9.0,9.0,37,-99.99,,,-99.99,,2013-01-16 06:56:00,
2013-01-15 23:04:00,28.0,0.0,30.44,NW,310,5.0,7.0,39,-99.99,,,-99.99,,2013-01-16 07:04:00,
2013-01-15 23:12:00,28.0,0.0,30.44,NW,324,8.0,8.0,37,-99.99,,,-99.99,,2013-01-16 07:12:00,
2013-01-15 23:20:00,29.0,0.0,30.44,West,280,9.0,9.0,36,-99.99,,,-99.99,,2013-01-16 07:20:00,
2013-01-15 23:28:00,29.0,0.0,30.44,NW,323,9.0,9.0,36,-99.99,,,-99.99,,2013-01-16 07:28:00,
2013-01-15 23:36:00,28.0,0.0,30.44,WNW,289,0.0,2.0,40,-99.99,,,-99.99,,2013-01-16 07:36:00,
2013-01-15 23:44:00,28.0,0.0,30.44,NW,314,13.0,13.0,38,-99.99,,,-99.99,,2013-01-16 07:44:00,
2013-01-15 23:52:00,28.0,0.0,30.44,NW,321,13.0,13.0,38,-99.99,,,-99.99,,2013-01-16 07:52:00,